Current Version              Previous Version:    01  02  03  04  05  06  07  08  09  10  11  12  13  14  15  16  17  18  19  20  21  22  23  24  25  26  27  28  29  30  
   31  32  33  34  35  36  37  38  39  40  41  42  43  44  45  46  47  48  49  50  51  52  53  54  55  56  57  58  59  60  

[Printable]
684
ASUS44 KLUB 230110
RWRTX
WEST TEXAS WEATHER ROUNDUP
NATIONAL WEATHER SERVICE LUBBOCK TX
800 PM CDT TUE APR 22 2014

NOTE: "FAIR" INDICATES FEW OR NO CLOUDS BELOW 12,000 FEET WITH NO
SIGNIFICANT WEATHER AND/OR OBSTRUCTIONS TO VISIBILITY.

TXZ004-006>008-010-012-014-016-OKZ002-230200-
TEXAS PANHANDLE/OKLAHOMA PANHANDLE

CITY           SKY/WX    TMP DP  RH WIND       PRES   REMARKS
AMARILLO       CLEAR     78  37  22 S24G33    29.91F
BORGER         PTCLDY    80  39  23 S15G29    29.87F
CANADIAN       CLEAR     76  47  35 S14G22    29.88F
DALHART        CLOUDY    80  35  19 S24G31    29.86F
DUMAS          PTCLDY    76  38  25 S21       29.87F
GUYMON         PTCLDY    80  41  24 S20G29    29.80F
HEREFORD       CLEAR     78  34  20 S22G28    29.91F
PAMPA          CLEAR     73  43  34 S23       29.92S
PERRYTON       PTCLDY    74  43  32 S21G33    29.86F
$$

TXZ026-029-035-045-048-230200-
SOUTHERN PANHANDLE/SOUTH PLAINS/ROLLING PLAINS

CITY           SKY/WX    TMP DP  RH WIND       PRES   REMARKS
CHILDRESS      CLEAR     77  47  34 SE15      29.91F
SEMINOLE       CLEAR     80  38  22 SE15      29.94F
LUBBOCK        PTCLDY    79  33  19 SE17      29.93S
PLAINVIEW      CLEAR     76  37  24 S15       29.92F
SNYDER         CLEAR     81  37  20 SE12      29.93F
$$

TXZ052-054-060>062-072-078-127-140-154-169-230200-
PERMIAN BASIN/CONCHO VALLEY/BIG COUNTRY/EDWARDS PLATEAU

CITY           SKY/WX    TMP DP  RH WIND       PRES   REMARKS
ABILENE        CLEAR     79  45  29 SE12      29.93F
BIG SPRING     CLEAR     83  39  21 SE13      29.95S
BRADY          CLEAR     79  46  31 E8        29.95R
BROWNWOOD      CLEAR     77  46  33 SE7       29.94S
JUNCTION       CLEAR     81  50  33 E9        29.93S
MIDLAND        CLEAR     83  42  23 SE16      29.92S
ODESSA           N/A    N/A N/A N/A MISG      29.92F
SAN ANGELO     CLEAR     83  42  23 E12       29.91S
SONORA         CLEAR     82  45  26 SE8       29.93S
SWEETWATER     CLEAR     80  39  23 SE12G18   29.97S
WINK           CLOUDY    81  43  26 SE10      29.87F
$$

TXZ055-058-074-075-080-082-230200-
FAR WEST/SOUTHWEST MOUNTAINS/TRANS PECOS

CITY           SKY/WX    TMP DP  RH WIND       PRES   REMARKS
ALPINE         PTCLDY    78  41  26 SE14G21   30.02F
DRYDEN           N/A     88  43  20 E12       29.88S
EL PASO        MOCLDY    85  31  14 SE16G22   29.80F
FORT STOCKTON  PTCLDY    82  42  24 SE14G23   29.92S
GUADALUPE PASS PTCLDY    72  40  31 E16       30.01F
MARFA          PTCLDY    77  36  22 SE14      30.01S
PECOS          MOCLDY    73  52  48 E10       29.86F
PRESIDIO       FAIR      90  32  12 E7G17     29.82S
$$

TXZ014-016-019-021>030-083-230200
TEXAS TECH WEST TEXAS MESONET/TEXAS PANHANDLE/NORTHERN SOUTH PLAINS

CITY           SKY/WX    TMP DP  RH WIND       PRES   REMARKS
ABERNATHY 5ENE   N/A     77  35  21 SE15      29.94F
AMARILLO 9NNE    N/A     80  39  23 S21       29.87F
AMARILLO 7SSE    N/A     78  38  24 S18       29.92F
AMHERST 1NE      N/A     78  34  20 SE17      29.92F
BOOTLEG 11WNW    N/A     75  37  25 S16       29.94F
CANADIAN 6E      N/A     74  47  37 SE16      29.88F
CAPROCK CYN SP   N/A     76  41  27 SE17      29.92S
CHILDRESS 2NNE   N/A     75  50  41 SE13      29.91S
CLARENDON 2WSW   N/A     76  40  27 SE16      29.92S
CLAUDE 12SW      N/A     78  39  24 S16       29.92F
DIMMITT 2NE      N/A     76  37  23 S17       29.92F
FLOYDADA 2NNE    N/A     76  31  19 SE14      29.94S
FRIONA 2NE       N/A     76  36  23 S15       29.92F
GOODLETT 3W      N/A     76  49  38 SE13      29.90F
HART 3N          N/A     76  36  22 SE15      29.92F
HEREFORD 2NW     N/A     77  34  21 S16       29.91S
MCLEAN 1E        N/A     72  48  43 SE16      29.92S
MEMPHIS 1NE      N/A     78  46  31 SE13      29.90F
MULESHOE 2SSW    N/A     78  36  22 S17       29.91F
OLTON 6S         N/A     78  33  19 S17       29.93F
PALO DURO SP     N/A     78  39  24 S17       29.92F
PAMPA 2E         N/A     72  47  39 SE17      29.92S
PLAINVIEW 1S     N/A     77  37  23 SE14      29.93S
SILVERTON 7ESE   N/A     75  39  27 SE16      29.93F
TULIA 2ENE       N/A     77  38  24 S16       29.93S
TURKEY 2WSW      N/A     78  41  27 SE16      29.90F
UMBARGER 3NNE    N/A     77  37  22 S20       29.92S
$$

TXZ033>036-039>041-045>048-230200
TEXAS TECH WEST TEXAS MESONET/SOUTH PLAINS

CITY           SKY/WX    TMP DP  RH WIND       PRES   REMARKS
AIKEN 3WSW       N/A     74  41  29 S14       29.95S
ANDREWS 2NE      N/A     81  37  20 SE12      29.93F
ANTON 6SSW       N/A     79  35  20 S17       29.93S
BROWNFIELD 2S    N/A     77  37  23 S14       29.94S
DENVR CTY 7WNW   N/A     78  35  21 SE17      29.93F
GAIL 2ESE        N/A     81  37  20 SE12      29.91S
LAMESA 2SE       N/A     79  39  23 S12       29.94S
LEVELLAND 4S     N/A     78  33  19 SE16      29.94S
LUBBOCK 3WNW     N/A     79  34  19 SE13      29.93F
MORTON 1ENE      N/A     78  37  22 S16       29.92F
ODONNELL 1N      N/A     80  35  19 SE10      29.93S
PLAINS 3N        N/A     79  37  22 SE17      29.94F
RALLS 1SE        N/A     78  34  20 SE15      29.95S
REESE CENTER     N/A     79  33  19 SE15      29.93S
SEAGRAVES 1SW    N/A     79  39  23 SE10      29.93F
SEMINOLE 2NNE    N/A     79  37  22 SE15      29.93S
SLATON 2NE       N/A     78  31  18 SE17      29.94S
SNYDER 3E        N/A     80  37  21 SE13      29.92S
SUNDOWN 8SW      N/A     79  37  21 S15       29.94S
TAHOKA 3NNE      N/A     78  33  19 SE13      29.93S
WOLFFORTH 6SSW   N/A     80  36  21 SE13      29.94S
$$

TXZ031-032-036>038-042>044-230200-
TEXAS TECH WEST TEXAS MESONET/ROLLING PLAINS

CITY           SKY/WX    TMP DP  RH WIND       PRES   REMARKS
ASPERMONT 3NE    N/A     81  40  22 SE8       29.91S
FLUVANNA 3WNW    N/A     80  34  18 SE13      29.93S
GRAHAM 5SSW      N/A     80  32  17 SE10      29.93S
GUTHRIE 10WSW    N/A     80  40  24 SE10      29.91S
HASKELL 1NW      N/A     78  42  27 SE9       29.91S
JAYTON 1SSE      N/A     80  38  22 SE13      29.91F
KNOX CITY 3NW    N/A     78  46  32 E8        29.91F
LK A HENRY 1NW   N/A     80  36  20 SE8       29.91S
NORTHFIELD 1S    N/A     79  43  28 SE14      29.90S
ODELL 4ENE       N/A     75  54  46 SE8       29.91F
PADUCAH 10SW     N/A     77  45  32 SE13      29.91S
POST 1NE         N/A     80  31  17 SE8       29.92S
RRING SPRGS 3N   N/A     77  43  30 SE12      29.93S
SEYMOUR 3NW      N/A     75  52  44 E6        29.91F
SPUR 1W          N/A     79  33  19 SE9       29.91S
WEINERT 2NNE     N/A     79  49  35 E8        29.91F
WHITE RVR 6NE    N/A     79  34  20 SE12      29.93S
$$

TXZ052-054-060>062-072-078-127-140-154-169-230200-
TEXAS TECH WEST TEXAS MESONET/PERMIAN BASIN/
CONCHO VALLEY/BIG COUNTRY/EDWARDS PLATEAU

CITY           SKY/WX    TMP DP  RH WIND       PRES   REMARKS
COYANOSA 2N      N/A     84  46  26 E7        29.89F
JUNCTION 1SSW    N/A     80  52  37 E5        29.94R
MERTZON 3NNE     N/A     82  44  26 E7        29.93S
SAN ANGELO 7NW   N/A     81  39  22 E12       29.93S
STRLNG CT 4WSW   N/A     81  40  23 E12       29.94S
ST LAWRNCE 5SW   N/A     81  35  18 E13       29.94S
SWEETWATR 11SW   N/A     78  40  25 SE14      29.96S
WALL 1E          N/A     82  41  23 E13       29.93S
$$

TXZ055-058-074-075-080-082-230200-
TEXAS TECH WEST TEXAS MESONET/FAR WEST/SOUTHWEST MOUNTAINS/TRANS PECOS

CITY           SKY/WX    TMP DP  RH WIND       PRES   REMARKS
PRSMN GAP BBNP   N/A     86  44  23 NE15      29.87S
$$